Starlink 3917

operational
NORAD ID: 52588 Int'l Des: 2022-051 Owner: SPXS Country: US Constellation: starlink
LEOCIRCULAR

About Starlink 3917

Description loading...

Live Position

Loading 3D Globe...

Upcoming Passes

Altitude History

Altitude vs Time

uPlot chart will show altitude changes over time

Two-Line Element Set

1 52588U 22051BE 26040.96744590 .00001420 00000-0 10726-3 0 9990
2 52588 53.2166 243.5713 0001475 78.9582 281.1576 15.08852118207406
Epoch: Feb 9, 2026 • Age: 17 hours

Current Status

Altitude 540.1 km
Velocity 7.59 km/s
Sub-Earth Point 5.75°N, 37.24°E
Launch Date May 13, 2022
Age 3.7 years
Type internet

Technical Details

Classification Payload
Mass 297.00 kg
Dry Mass 275.00 kg
Total Mass 297.00 kg
Length 0.20 m
Diameter 2.80 m
Span 9.00 m
Shape Box + pan
Manufacturer SPXS
Bus Type Starlink
Phase Status In Orbit
Owner/State SPXS/US

Large Constellations

Loading constellations...